Overview Statistics Trail Chart Weather Telemetry Raw packets
 

This is the latest recevied weather packets stored in our database for station/object SA7AHC. If no packets are shown the sender has not sent any weather packets the latest 10 day(s).

<< 1 2 3 4 5 6 >>
Time Temp. Humidity Pressure Rain* Wind** Luminosity Snow
1788605296 15.56° C 77% 1004.3 hPa 0 mm - 171 W/m² -
1788604697 15° C 78% 1004.2 hPa 0 mm - 232 W/m² -
1788604096 15.56° C 79% 1004.2 hPa 0 mm - 777 W/m² -
1788603496 14.44° C 83% 1003.9 hPa 0 mm - 221 W/m² -
1788602895 14.44° C 85% 1003.7 hPa 0 mm - 287 W/m² -
1788602296 15° C 80% 1003.7 hPa 0 mm - 218 W/m² -
1788601700 14.44° C 85% 1003.7 hPa 0 mm - 643 W/m² -
1788601096 14.44° C 85% 1003.7 hPa 0 mm - 585 W/m² -
1788600494 13.89° C 86% 1003.6 hPa 0 mm - 255 W/m² -
1788599892 13.89° C 87% 1003.6 hPa 0 mm - 262 W/m² -
1788599290 13.33° C 89% 1003.3 hPa 0 mm - 190 W/m² -
1788598688 13.89° C 89% 1003.3 hPa 0 mm - 188 W/m² -
1788598088 13.89° C 90% 1003.2 hPa 0.25 mm - 364 W/m² -
1788597486 13.33° C 91% 1003.1 hPa 0.25 mm - 596 W/m² -
1788596885 12.78° C 94% 1003.1 hPa 0.25 mm - 183 W/m² -
1788596319 12.78° C 94% 1003.1 hPa 0.25 mm - 139 W/m² -
1788595683 12.78° C 94% 1003 hPa 0.25 mm - 162 W/m² -
1788595084 12.22° C 95% 1002.9 hPa 0.25 mm - 104 W/m² -
1788594484 12.22° C 95% 1002.6 hPa 0 mm - 171 W/m² -
1788593882 12.22° C 95% 1002.5 hPa 0 mm - 93 W/m² -
1788593281 12.22° C 96% 1002.5 hPa 0 mm - 199 W/m² -
1788592681 12.22° C 97% 1002.3 hPa 0 mm - 98 W/m² -
1788592085 11.67° C 97% 1002.3 hPa 0 mm - 100 W/m² -
1788591483 11.67° C 97% 1002.3 hPa 0 mm - 97 W/m² -
1788590887 11.67° C 98% 1002 hPa 0 mm - 128 W/m² -

* Rain latest hour (hover to see other rain measurements)
** Current wind speed in m/s (hover to see current wind gust speed)